Time,TemperatureF,DewpointF,PressureIn,WindDirection,WindDirectionDegrees,WindSpeedMPH,WindSpeedGustMPH,Humidity,HourlyPrecipIn,Conditions,Clouds,dailyrainin,SoftwareType,DateUTC
2013-02-11 00:00:00,70.5,60.3,29.64,SSE,157,0.0,0.0,70,0.00,,,0.00,WUHU21623XXSP,2013-02-11 05:00:00,
2013-02-11 00:05:00,70.5,59.8,29.64,SSE,157,0.0,0.0,69,0.00,,,0.00,WUHU21623XXSP,2013-02-11 05:05:00,
2013-02-11 00:10:00,70.3,60.1,29.64,ESE,112,0.0,0.0,70,0.00,,,0.00,WUHU21623XXSP,2013-02-11 05:10:00,
2013-02-11 00:15:00,70.3,60.1,29.65,SSE,157,0.0,0.0,70,0.00,,,0.00,WUHU21623XXSP,2013-02-11 05:15:00,
2013-02-11 00:20:00,70.3,60.1,29.64,ESE,112,0.0,0.0,70,0.00,,,0.00,WUHU21623XXSP,2013-02-11 05:20:00,
2013-02-11 00:25:00,70.3,60.1,29.64,SSE,157,0.0,0.0,70,0.00,,,0.00,WUHU21623XXSP,2013-02-11 05:25:00,
2013-02-11 00:30:00,70.3,59.6,29.64,SSE,157,0.0,0.0,69,0.00,,,0.00,WUHU21623XXSP,2013-02-11 05:30:00,
2013-02-11 00:35:00,70.2,59.5,29.64,SE,135,0.0,0.0,69,0.00,,,0.00,WUHU21623XXSP,2013-02-11 05:35:00,
2013-02-11 00:40:00,70.0,59.3,29.64,SE,135,0.0,0.0,69,0.00,,,0.00,WUHU21623XXSP,2013-02-11 05:40:00,
2013-02-11 00:45:00,70.0,59.7,29.64,SE,135,0.0,0.0,70,0.00,,,0.00,WUHU21623XXSP,2013-02-11 05:45:00,
2013-02-11 00:50:00,70.0,59.7,29.64,SSE,157,0.0,0.0,70,0.00,,,0.00,WUHU21623XXSP,2013-02-11 05:50:00,
2013-02-11 00:55:00,69.8,59.5,29.64,SE,135,0.0,0.0,70,0.00,,,0.00,WUHU21623XXSP,2013-02-11 05:55:00,
2013-02-11 01:00:00,69.6,59.4,29.64,SSE,157,0.0,0.0,70,0.00,,,0.00,WUHU21623XXSP,2013-02-11 06:00:00,
2013-02-11 01:05:00,69.6,59.4,29.64,SE,135,0.0,0.0,70,0.00,,,0.00,WUHU21623XXSP,2013-02-11 06:05:00,
2013-02-11 01:10:00,69.6,59.4,29.64,SSE,157,0.0,0.0,70,0.00,,,0.00,WUHU21623XXSP,2013-02-11 06:10:00,
2013-02-11 01:15:00,69.6,59.4,29.64,SE,135,0.0,0.0,70,0.00,,,0.00,WUHU21623XXSP,2013-02-11 06:15:00,
2013-02-11 01:20:00,69.6,59.4,29.64,SE,135,0.0,0.0,70,0.00,,,0.00,WUHU21623XXSP,2013-02-11 06:20:00,
2013-02-11 01:25:00,69.4,59.2,29.63,SE,135,0.0,0.0,70,0.00,,,0.00,WUHU21623XXSP,2013-02-11 06:25:00,
2013-02-11 01:30:00,69.4,59.2,29.63,South,180,0.0,0.0,70,0.00,,,0.00,WUHU21623XXSP,2013-02-11 06:30:00,
2013-02-11 01:35:00,69.4,59.2,29.63,SE,135,0.0,0.0,70,0.00,,,0.00,WUHU21623XXSP,2013-02-11 06:35:00,
2013-02-11 01:40:00,69.1,58.9,29.63,South,180,0.0,0.0,70,0.00,,,0.00,WUHU21623XXSP,2013-02-11 06:40:00,
2013-02-11 01:45:00,69.1,58.9,29.63,South,180,0.0,0.0,70,0.00,,,0.00,WUHU21623XXSP,2013-02-11 06:45:00,
2013-02-11 01:50:00,68.9,58.7,29.63,SSE,157,0.0,0.0,70,0.00,,,0.00,WUHU21623XXSP,2013-02-11 06:50:00,
2013-02-11 01:55:00,68.9,58.7,29.63,SE,135,0.0,0.0,70,0.00,,,0.00,WUHU21623XXSP,2013-02-11 06:55:00,
2013-02-11 02:00:00,68.9,58.7,29.63,South,180,0.0,0.0,70,0.00,,,0.00,WUHU21623XXSP,2013-02-11 07:00:00,
2013-02-11 02:05:00,68.7,58.6,29.63,SSE,157,0.0,0.0,70,0.00,,,0.00,WUHU21623XXSP,2013-02-11 07:05:00,
2013-02-11 02:10:00,68.7,58.6,29.63,SSE,157,0.0,0.0,70,0.00,,,0.00,WUHU21623XXSP,2013-02-11 07:10:00,
2013-02-11 02:15:00,68.5,58.4,29.63,SSE,157,0.0,0.0,70,0.00,,,0.00,WUHU21623XXSP,2013-02-11 07:15:00,
2013-02-11 02:20:00,68.5,58.4,29.63,South,180,0.0,0.0,70,0.00,,,0.00,WUHU21623XXSP,2013-02-11 07:20:00,
2013-02-11 02:25:00,68.5,58.4,29.63,SSE,157,0.0,0.0,70,0.00,,,0.00,WUHU21623XXSP,2013-02-11 07:25:00,
2013-02-11 02:30:00,68.5,58.4,29.63,SSE,157,0.0,0.0,70,0.00,,,0.00,WUHU21623XXSP,2013-02-11 07:30:00,
2013-02-11 02:35:00,68.7,58.9,29.63,SSE,157,0.0,0.0,71,0.00,,,0.00,WUHU21623XXSP,2013-02-11 07:35:00,
2013-02-11 02:40:00,68.7,58.9,29.62,SSE,157,0.0,0.0,71,0.00,,,0.00,WUHU21623XXSP,2013-02-11 07:40:00,
2013-02-11 02:45:00,68.7,58.9,29.62,SSE,157,0.0,0.0,71,0.00,,,0.00,WUHU21623XXSP,2013-02-11 07:45:00,
2013-02-11 02:50:00,68.5,58.8,29.62,SSE,157,0.0,0.0,71,0.00,,,0.00,WUHU21623XXSP,2013-02-11 07:50:00,
2013-02-11 02:55:00,68.5,59.2,29.62,SE,135,0.0,0.0,72,0.00,,,0.00,WUHU21623XXSP,2013-02-11 07:55:00,
2013-02-11 03:00:00,68.5,59.2,29.62,SSE,157,0.0,0.0,72,0.00,,,0.00,WUHU21623XXSP,2013-02-11 08:00:00,
2013-02-11 03:05:00,68.7,59.7,29.61,SSE,157,0.0,0.0,73,0.00,,,0.00,WUHU21623XXSP,2013-02-11 08:05:00,
2013-02-11 03:10:00,68.7,59.7,29.61,SSE,157,0.0,0.0,73,0.00,,,0.00,WUHU21623XXSP,2013-02-11 08:10:00,
2013-02-11 03:15:00,68.7,59.7,29.61,SE,135,0.0,0.0,73,0.00,,,0.00,WUHU21623XXSP,2013-02-11 08:15:00,
2013-02-11 03:20:00,68.7,59.7,29.61,SE,135,0.0,0.0,73,0.00,,,0.00,WUHU21623XXSP,2013-02-11 08:20:00,
2013-02-11 03:25:00,68.7,59.7,29.61,SE,135,0.0,0.0,73,0.00,,,0.00,WUHU21623XXSP,2013-02-11 08:25:00,
2013-02-11 03:30:00,68.5,59.5,29.61,SE,135,0.0,0.0,73,0.00,,,0.00,WUHU21623XXSP,2013-02-11 08:30:00,
2013-02-11 03:35:00,68.7,59.7,29.61,SE,135,0.0,0.0,73,0.00,,,0.00,WUHU21623XXSP,2013-02-11 08:35:00,
2013-02-11 03:40:00,68.7,60.1,29.61,SE,135,0.0,0.0,74,0.00,,,0.00,WUHU21623XXSP,2013-02-11 08:40:00,
2013-02-11 03:45:00,68.9,60.2,29.61,SE,135,0.0,0.0,74,0.00,,,0.00,WUHU21623XXSP,2013-02-11 08:45:00,
2013-02-11 03:50:00,68.9,60.2,29.61,SE,135,0.0,0.0,74,0.00,,,0.00,WUHU21623XXSP,2013-02-11 08:50:00,
2013-02-11 03:55:00,69.1,60.4,29.61,SE,135,0.0,0.0,74,0.00,,,0.00,WUHU21623XXSP,2013-02-11 08:55:00,
2013-02-11 04:00:00,69.1,60.4,29.61,SSE,157,0.0,0.0,74,0.00,,,0.00,WUHU21623XXSP,2013-02-11 09:00:00,
2013-02-11 04:05:00,68.9,60.2,29.61,SE,135,0.0,0.0,74,0.00,,,0.00,WUHU21623XXSP,2013-02-11 09:05:00,
2013-02-11 04:10:00,68.7,60.1,29.61,SE,135,0.0,0.0,74,0.00,,,0.00,WUHU21623XXSP,2013-02-11 09:10:00,
2013-02-11 04:15:00,68.7,60.1,29.61,SSE,157,0.0,0.0,74,0.00,,,0.00,WUHU21623XXSP,2013-02-11 09:15:00,
2013-02-11 04:20:00,68.7,60.1,29.61,SE,135,0.0,0.0,74,0.00,,,0.00,WUHU21623XXSP,2013-02-11 09:20:00,
2013-02-11 04:25:00,68.7,60.1,29.61,SSE,157,0.0,0.0,74,0.00,,,0.00,WUHU21623XXSP,2013-02-11 09:25:00,
2013-02-11 04:30:00,68.7,60.1,29.61,SE,135,0.0,0.0,74,0.00,,,0.00,WUHU21623XXSP,2013-02-11 09:30:00,
2013-02-11 04:35:00,68.7,60.1,29.61,SE,135,0.0,0.0,74,0.00,,,0.00,WUHU21623XXSP,2013-02-11 09:35:00,
2013-02-11 04:40:00,68.7,60.1,29.61,SE,135,0.0,0.0,74,0.00,,,0.00,WUHU21623XXSP,2013-02-11 09:40:00,
2013-02-11 04:45:00,68.9,60.6,29.61,SSE,157,0.0,0.0,75,0.00,,,0.00,WUHU21623XXSP,2013-02-11 09:45:00,
2013-02-11 04:50:00,69.1,60.8,29.61,SSE,157,0.0,0.0,75,0.00,,,0.00,WUHU21623XXSP,2013-02-11 09:50:00,
2013-02-11 04:55:00,69.3,60.6,29.61,SE,135,0.0,0.0,74,0.00,,,0.00,WUHU21623XXSP,2013-02-11 09:55:00,
2013-02-11 05:00:00,69.3,60.6,29.61,SE,135,0.0,0.0,74,0.00,,,0.00,WUHU21623XXSP,2013-02-11 10:00:00,
2013-02-11 05:05:00,69.4,60.7,29.61,SSE,157,0.0,0.0,74,0.00,,,0.00,WUHU21623XXSP,2013-02-11 10:05:00,
2013-02-11 05:10:00,69.6,60.9,29.61,SSE,157,0.0,0.0,74,0.00,,,0.00,WUHU21623XXSP,2013-02-11 10:10:00,
2013-02-11 05:15:00,69.6,60.9,29.61,ESE,112,0.0,0.0,74,0.00,,,0.00,WUHU21623XXSP,2013-02-11 10:15:00,
2013-02-11 05:20:00,69.6,60.9,29.60,SSE,157,0.0,0.0,74,0.00,,,0.00,WUHU21623XXSP,2013-02-11 10:20:00,
2013-02-11 05:25:00,69.4,60.7,29.61,SSE,157,0.0,0.0,74,0.00,,,0.00,WUHU21623XXSP,2013-02-11 10:25:00,
2013-02-11 05:30:00,69.4,60.7,29.61,SSE,157,0.0,0.0,74,0.00,,,0.00,WUHU21623XXSP,2013-02-11 10:30:00,
2013-02-11 05:35:00,69.1,60.4,29.61,SSE,157,0.0,0.0,74,0.00,,,0.00,WUHU21623XXSP,2013-02-11 10:35:00,
2013-02-11 05:40:00,68.9,59.9,29.61,SSE,157,0.0,0.0,73,0.00,,,0.00,WUHU21623XXSP,2013-02-11 10:40:00,
2013-02-11 05:45:00,68.9,59.9,29.61,SE,135,0.0,0.0,73,0.00,,,0.00,WUHU21623XXSP,2013-02-11 10:45:00,
2013-02-11 05:50:00,68.7,59.7,29.61,SE,135,0.0,0.0,73,0.00,,,0.00,WUHU21623XXSP,2013-02-11 10:50:00,
2013-02-11 05:55:00,68.7,59.7,29.61,SSE,157,0.0,0.0,73,0.00,,,0.00,WUHU21623XXSP,2013-02-11 10:55:00,
2013-02-11 06:00:00,68.7,59.7,29.61,SSE,157,0.0,0.0,73,0.00,,,0.00,WUHU21623XXSP,2013-02-11 11:00:00,
2013-02-11 06:05:00,68.7,59.7,29.61,SSE,157,0.0,0.0,73,0.00,,,0.00,WUHU21623XXSP,2013-02-11 11:05:00,
2013-02-11 06:10:00,68.5,59.5,29.61,SE,135,0.0,0.0,73,0.00,,,0.00,WUHU21623XXSP,2013-02-11 11:10:00,
2013-02-11 06:15:00,68.5,59.5,29.61,South,180,0.0,0.0,73,0.00,,,0.00,WUHU21623XXSP,2013-02-11 11:15:00,
2013-02-11 06:20:00,68.5,59.9,29.62,SSE,157,0.0,0.0,74,0.00,,,0.00,WUHU21623XXSP,2013-02-11 11:20:00,
2013-02-11 06:25:00,68.5,59.9,29.61,SSE,157,0.0,0.0,74,0.00,,,0.00,WUHU21623XXSP,2013-02-11 11:25:00,
2013-02-11 06:30:00,68.5,59.9,29.62,SSE,157,0.0,0.0,74,0.00,,,0.00,WUHU21623XXSP,2013-02-11 11:30:00,
2013-02-11 06:35:00,68.4,59.8,29.62,South,180,0.0,0.0,74,0.00,,,0.00,WUHU21623XXSP,2013-02-11 11:35:00,
2013-02-11 06:40:00,68.5,59.9,29.62,SSE,157,0.0,0.0,74,0.00,,,0.00,WUHU21623XXSP,2013-02-11 11:40:00,
2013-02-11 06:45:00,68.5,59.9,29.62,SE,135,0.0,0.0,74,0.00,,,0.00,WUHU21623XXSP,2013-02-11 11:45:00,
2013-02-11 06:50:00,68.5,59.9,29.62,SE,135,0.0,0.0,74,0.00,,,0.00,WUHU21623XXSP,2013-02-11 11:50:00,
2013-02-11 06:55:00,68.7,60.1,29.62,SE,135,0.0,0.0,74,0.00,,,0.00,WUHU21623XXSP,2013-02-11 11:55:00,
2013-02-11 07:00:00,68.7,59.7,29.63,SSE,157,0.0,0.0,73,0.00,,,0.00,WUHU21623XXSP,2013-02-11 12:00:00,
2013-02-11 07:05:00,68.7,60.1,29.63,SSE,157,0.0,0.0,74,0.00,,,0.00,WUHU21623XXSP,2013-02-11 12:05:00,
2013-02-11 07:10:00,68.5,59.5,29.63,SSE,157,0.0,0.0,73,0.00,,,0.00,WUHU21623XXSP,2013-02-11 12:10:00,
2013-02-11 07:15:00,68.7,60.1,29.63,SE,135,0.0,0.0,74,0.00,,,0.00,WUHU21623XXSP,2013-02-11 12:15:00,
2013-02-11 07:20:00,68.9,60.2,29.63,ESE,112,0.0,0.0,74,0.00,,,0.00,WUHU21623XXSP,2013-02-11 12:20:00,
2013-02-11 07:25:00,68.9,60.2,29.63,SSE,157,0.0,0.0,74,0.00,,,0.00,WUHU21623XXSP,2013-02-11 12:25:00,
2013-02-11 07:30:00,69.3,60.6,29.63,NE,45,0.0,0.0,74,0.00,,,0.00,WUHU21623XXSP,2013-02-11 12:30:00,
2013-02-11 07:35:00,69.6,60.9,29.63,SE,135,0.0,0.0,74,0.00,,,0.00,WUHU21623XXSP,2013-02-11 12:35:00,
2013-02-11 07:40:00,69.6,60.5,29.64,SSE,157,0.0,0.0,73,0.00,,,0.00,WUHU21623XXSP,2013-02-11 12:40:00,
2013-02-11 07:45:00,70.0,60.9,29.64,SSE,157,0.0,0.0,73,0.00,,,0.00,WUHU21623XXSP,2013-02-11 12:45:00,
2013-02-11 07:50:00,70.0,60.9,29.64,SE,135,0.0,0.0,73,0.00,,,0.00,WUHU21623XXSP,2013-02-11 12:50:00,
2013-02-11 07:55:00,70.3,61.2,29.64,SSE,157,0.0,0.0,73,0.00,,,0.00,WUHU21623XXSP,2013-02-11 12:55:00,
2013-02-11 08:00:00,70.5,61.0,29.65,SE,135,0.0,0.0,72,0.00,,,0.00,WUHU21623XXSP,2013-02-11 13:00:00,
2013-02-11 08:05:00,70.7,61.2,29.65,SE,135,0.0,0.0,72,0.00,,,0.00,WUHU21623XXSP,2013-02-11 13:05:00,
2013-02-11 08:10:00,70.9,61.4,29.65,South,180,0.0,0.0,72,0.00,,,0.00,WUHU21623XXSP,2013-02-11 13:10:00,
2013-02-11 08:15:00,71.2,61.7,29.65,ESE,112,0.0,0.0,72,0.00,,,0.00,WUHU21623XXSP,2013-02-11 13:15:00,
2013-02-11 08:20:00,71.2,61.7,29.65,SE,135,0.0,0.0,72,0.00,,,0.00,WUHU21623XXSP,2013-02-11 13:20:00,
2013-02-11 08:25:00,71.2,61.6,29.65,SE,135,0.0,0.0,71,0.00,,,0.00,WUHU21623XXSP,2013-02-11 13:25:00,
2013-02-11 08:30:00,71.8,61.9,29.65,South,180,0.0,0.0,71,0.00,,,0.00,WUHU21623XXSP,2013-02-11 13:30:00,
2013-02-11 08:35:00,71.8,61.9,29.65,SSE,157,0.0,0.0,71,0.00,,,0.00,WUHU21623XXSP,2013-02-11 13:35:00,
2013-02-11 08:40:00,72.3,62.4,29.66,SSE,157,0.0,0.0,71,0.00,,,0.00,WUHU21623XXSP,2013-02-11 13:40:00,
2013-02-11 08:45:00,73.2,62.5,29.66,South,180,0.0,0.0,69,0.00,,,0.00,WUHU21623XXSP,2013-02-11 13:45:00,
2013-02-11 08:50:00,73.0,62.3,29.66,East,90,0.0,0.0,69,0.00,,,0.00,WUHU21623XXSP,2013-02-11 13:50:00,
2013-02-11 08:55:00,72.7,62.0,29.66,SSE,157,0.0,0.0,69,0.00,,,0.00,WUHU21623XXSP,2013-02-11 13:55:00,
2013-02-11 09:00:00,73.2,62.5,29.66,NE,45,0.0,0.0,69,0.00,,,0.00,WUHU21623XXSP,2013-02-11 14:00:00,
2013-02-11 09:05:00,73.2,62.5,29.66,ESE,112,0.0,0.0,69,0.00,,,0.00,WUHU21623XXSP,2013-02-11 14:05:00,
2013-02-11 09:10:00,73.9,63.2,29.66,SE,135,0.0,0.0,69,0.00,,,0.00,WUHU21623XXSP,2013-02-11 14:10:00,
2013-02-11 09:15:00,73.9,62.7,29.66,East,90,0.0,0.0,68,0.00,,,0.00,WUHU21623XXSP,2013-02-11 14:15:00,
2013-02-11 09:20:00,73.8,62.6,29.66,SE,135,0.0,0.0,68,0.00,,,0.00,WUHU21623XXSP,2013-02-11 14:20:00,
2013-02-11 09:25:00,74.5,62.8,29.66,SE,135,0.0,0.0,67,0.00,,,0.00,WUHU21623XXSP,2013-02-11 14:25:00,
2013-02-11 09:30:00,75.0,62.9,29.66,SE,135,0.0,0.0,66,0.00,,,0.00,WUHU21623XXSP,2013-02-11 14:30:00,
2013-02-11 09:35:00,75.6,62.9,29.66,SE,135,0.0,0.0,65,0.00,,,0.00,WUHU21623XXSP,2013-02-11 14:35:00,
2013-02-11 09:40:00,75.4,62.8,29.66,SE,135,0.0,0.0,65,0.00,,,0.00,WUHU21623XXSP,2013-02-11 14:40:00,
2013-02-11 09:45:00,75.4,62.8,29.66,SSE,157,0.0,0.0,65,0.00,,,0.00,WUHU21623XXSP,2013-02-11 14:45:00,
2013-02-11 09:50:00,75.2,63.0,29.67,SE,135,0.0,0.0,66,0.00,,,0.00,WUHU21623XXSP,2013-02-11 14:50:00,
2013-02-11 09:55:00,76.3,63.6,29.66,SE,135,0.0,0.0,65,0.00,,,0.00,WUHU21623XXSP,2013-02-11 14:55:00,
2013-02-11 10:00:00,76.8,63.2,29.67,SSE,157,0.0,0.0,63,0.00,,,0.00,WUHU21623XXSP,2013-02-11 15:00:00,
2013-02-11 10:05:00,75.6,62.9,29.67,SSE,157,0.0,0.0,65,0.00,,,0.00,WUHU21623XXSP,2013-02-11 15:05:00,
2013-02-11 10:10:00,76.8,63.7,29.67,South,180,0.0,0.0,64,0.00,,,0.00,WUHU21623XXSP,2013-02-11 15:10:00,
2013-02-11 10:15:00,77.7,63.7,29.67,SE,135,0.0,0.0,62,0.00,,,0.00,WUHU21623XXSP,2013-02-11 15:15:00,
2013-02-11 10:20:00,77.7,64.1,29.67,ESE,112,0.0,0.0,63,0.00,,,0.00,WUHU21623XXSP,2013-02-11 15:20:00,
2013-02-11 10:25:00,77.7,64.1,29.67,ESE,112,0.0,0.0,63,0.00,,,0.00,WUHU21623XXSP,2013-02-11 15:25:00,
2013-02-11 10:30:00,78.6,64.5,29.67,South,180,0.0,0.0,62,0.00,,,0.00,WUHU21623XXSP,2013-02-11 15:30:00,
2013-02-11 10:35:00,78.6,64.1,29.67,South,180,0.0,0.0,61,0.00,,,0.00,WUHU21623XXSP,2013-02-11 15:35:00,
2013-02-11 10:40:00,78.6,63.7,29.67,SSE,157,0.0,0.0,60,0.00,,,0.00,WUHU21623XXSP,2013-02-11 15:40:00,
2013-02-11 10:45:00,78.6,64.1,29.67,ESE,112,0.0,0.0,61,0.00,,,0.00,WUHU21623XXSP,2013-02-11 15:45:00,
2013-02-11 10:50:00,77.9,63.8,29.66,SSE,157,0.0,0.0,62,0.00,,,0.00,WUHU21623XXSP,2013-02-11 15:50:00,
2013-02-11 10:55:00,78.4,64.4,29.66,SSE,157,0.0,0.0,62,0.00,,,0.00,WUHU21623XXSP,2013-02-11 15:55:00,
2013-02-11 11:00:00,77.9,64.3,29.66,South,180,0.0,0.0,63,0.00,,,0.00,WUHU21623XXSP,2013-02-11 16:00:00,
2013-02-11 11:05:00,79.0,64.5,29.66,ESE,112,0.0,0.0,61,0.00,,,0.00,WUHU21623XXSP,2013-02-11 16:05:00,
2013-02-11 11:10:00,79.2,64.6,29.66,SE,135,0.0,0.0,61,0.00,,,0.00,WUHU21623XXSP,2013-02-11 16:10:00,
2013-02-11 11:15:00,79.0,64.0,29.66,SSE,157,0.0,0.0,60,0.00,,,0.00,WUHU21623XXSP,2013-02-11 16:15:00,
2013-02-11 11:20:00,79.9,64.3,29.66,ESE,112,0.0,0.0,59,0.00,,,0.00,WUHU21623XXSP,2013-02-11 16:20:00,
2013-02-11 11:25:00,79.5,64.5,29.66,ESE,112,0.0,0.0,60,0.00,,,0.00,WUHU21623XXSP,2013-02-11 16:25:00,
2013-02-11 11:30:00,79.9,64.3,29.66,SSE,157,0.0,0.0,59,0.00,,,0.00,WUHU21623XXSP,2013-02-11 16:30:00,
2013-02-11 11:35:00,81.0,64.8,29.66,ESE,112,0.0,0.0,58,0.00,,,0.00,WUHU21623XXSP,2013-02-11 16:35:00,
2013-02-11 11:40:00,79.5,64.5,29.66,SSE,157,0.0,0.0,60,0.00,,,0.00,WUHU21623XXSP,2013-02-11 16:40:00,
2013-02-11 11:45:00,79.5,64.0,29.66,South,180,0.0,0.0,59,0.00,,,0.00,WUHU21623XXSP,2013-02-11 16:45:00,
2013-02-11 11:50:00,80.6,64.4,29.66,SE,135,0.0,0.0,58,0.00,,,0.00,WUHU21623XXSP,2013-02-11 16:50:00,
2013-02-11 11:55:00,79.5,64.5,29.65,SSE,157,0.0,0.0,60,0.00,,,0.00,WUHU21623XXSP,2013-02-11 16:55:00,
2013-02-11 12:00:00,78.6,63.7,29.65,SSE,157,0.0,0.0,60,0.00,,,0.00,WUHU21623XXSP,2013-02-11 17:00:00,
2013-02-11 12:05:00,78.1,64.0,29.65,SE,135,0.0,0.0,62,0.00,,,0.00,WUHU21623XXSP,2013-02-11 17:05:00,
2013-02-11 12:10:00,77.7,63.7,29.65,SE,135,0.0,0.0,62,0.00,,,0.00,WUHU21623XXSP,2013-02-11 17:10:00,
2013-02-11 12:15:00,77.5,63.5,29.65,SSE,157,0.0,0.0,62,0.00,,,0.00,WUHU21623XXSP,2013-02-11 17:15:00,
2013-02-11 12:20:00,77.4,63.3,29.65,SSE,157,0.0,0.0,62,0.00,,,0.00,WUHU21623XXSP,2013-02-11 17:20:00,
2013-02-11 12:25:00,77.4,63.8,29.65,SSE,157,0.0,0.0,63,0.00,,,0.00,WUHU21623XXSP,2013-02-11 17:25:00,
2013-02-11 12:30:00,78.6,64.1,29.64,ESE,112,0.0,0.0,61,0.00,,,0.00,WUHU21623XXSP,2013-02-11 17:30:00,
2013-02-11 12:35:00,80.1,64.5,29.64,SSE,157,0.0,0.0,59,0.00,,,0.00,WUHU21623XXSP,2013-02-11 17:35:00,
2013-02-11 12:40:00,79.5,64.0,29.64,SSE,157,0.0,0.0,59,0.00,,,0.00,WUHU21623XXSP,2013-02-11 17:40:00,
2013-02-11 12:45:00,79.3,64.8,29.63,SE,135,0.0,0.0,61,0.00,,,0.00,WUHU21623XXSP,2013-02-11 17:45:00,
2013-02-11 12:50:00,78.8,64.3,29.63,SSE,157,0.0,0.0,61,0.00,,,0.00,WUHU21623XXSP,2013-02-11 17:50:00,
2013-02-11 12:55:00,79.0,64.5,29.63,South,180,0.0,0.0,61,0.00,,,0.00,WUHU21623XXSP,2013-02-11 17:55:00,
2013-02-11 13:00:00,79.5,64.5,29.63,SSE,157,0.0,0.0,60,0.00,,,0.00,WUHU21623XXSP,2013-02-11 18:00:00,
2013-02-11 13:05:00,81.3,65.1,29.63,SE,135,0.0,0.0,58,0.00,,,0.00,WUHU21623XXSP,2013-02-11 18:05:00,
2013-02-11 13:10:00,82.0,65.7,29.62,SSE,157,0.0,0.0,58,0.00,,,0.00,WUHU21623XXSP,2013-02-11 18:10:00,
2013-02-11 13:15:00,82.2,64.8,29.62,SSE,157,0.0,0.0,56,0.00,,,0.00,WUHU21623XXSP,2013-02-11 18:15:00,
2013-02-11 13:20:00,81.7,64.4,29.62,SSE,157,0.0,0.0,56,0.00,,,0.00,WUHU21623XXSP,2013-02-11 18:20:00,
2013-02-11 13:25:00,82.0,64.7,29.62,SSE,157,0.0,0.0,56,0.00,,,0.00,WUHU21623XXSP,2013-02-11 18:25:00,
2013-02-11 13:30:00,82.4,65.5,29.62,SSE,157,0.0,0.0,57,0.00,,,0.00,WUHU21623XXSP,2013-02-11 18:30:00,
2013-02-11 13:35:00,82.0,64.7,29.62,South,180,0.0,0.0,56,0.00,,,0.00,WUHU21623XXSP,2013-02-11 18:35:00,
2013-02-11 13:40:00,81.0,64.2,29.62,South,180,0.0,0.0,57,0.00,,,0.00,WUHU21623XXSP,2013-02-11 18:40:00,
2013-02-11 13:45:00,80.4,64.3,29.61,ESE,112,0.0,0.0,58,0.00,,,0.00,WUHU21623XXSP,2013-02-11 18:45:00,
2013-02-11 13:50:00,80.2,64.1,29.61,South,180,0.0,0.0,58,0.00,,,0.00,WUHU21623XXSP,2013-02-11 18:50:00,
2013-02-11 13:55:00,80.4,64.3,29.61,ESE,112,0.0,0.0,58,0.00,,,0.00,WUHU21623XXSP,2013-02-11 18:55:00,
2013-02-11 14:00:00,81.3,64.6,29.61,SSE,157,0.0,0.0,57,0.00,,,0.00,WUHU21623XXSP,2013-02-11 19:00:00,
2013-02-11 14:05:00,82.9,65.0,29.60,ESE,112,0.0,0.0,55,0.00,,,0.00,WUHU21623XXSP,2013-02-11 19:05:00,
2013-02-11 14:10:00,82.8,64.8,29.60,SSE,157,0.0,0.0,55,0.00,,,0.00,WUHU21623XXSP,2013-02-11 19:10:00,
2013-02-11 14:15:00,81.7,64.4,29.60,South,180,0.0,0.0,56,0.00,,,0.00,WUHU21623XXSP,2013-02-11 19:15:00,
2013-02-11 14:20:00,82.0,64.2,29.60,SSE,157,0.0,0.0,55,0.00,,,0.00,WUHU21623XXSP,2013-02-11 19:20:00,
2013-02-11 14:25:00,81.3,64.0,29.60,South,180,0.0,0.0,56,0.00,,,0.00,WUHU21623XXSP,2013-02-11 19:25:00,
2013-02-11 14:30:00,82.0,64.7,29.59,SSE,157,0.0,0.0,56,0.00,,,0.00,WUHU21623XXSP,2013-02-11 19:30:00,
2013-02-11 14:35:00,80.4,63.8,29.60,South,180,0.0,0.0,57,0.00,,,0.00,WUHU21623XXSP,2013-02-11 19:35:00,
2013-02-11 14:40:00,80.6,63.9,29.59,South,180,0.0,0.0,57,0.00,,,0.00,WUHU21623XXSP,2013-02-11 19:40:00,
2013-02-11 14:45:00,80.2,64.1,29.59,SSE,157,0.0,0.0,58,0.00,,,0.00,WUHU21623XXSP,2013-02-11 19:45:00,
2013-02-11 14:50:00,82.0,64.7,29.59,SSE,157,0.0,0.0,56,0.00,,,0.00,WUHU21623XXSP,2013-02-11 19:50:00,
2013-02-11 14:55:00,82.6,65.2,29.58,SSW,202,0.0,0.0,56,0.00,,,0.00,WUHU21623XXSP,2013-02-11 19:55:00,
2013-02-11 15:00:00,82.6,64.7,29.59,SE,135,0.0,0.0,55,0.00,,,0.00,WUHU21623XXSP,2013-02-11 20:00:00,
2013-02-11 15:05:00,82.6,64.7,29.59,SE,135,0.0,0.0,55,0.00,,,0.00,WUHU21623XXSP,2013-02-11 20:05:00,
2013-02-11 15:10:00,82.0,64.7,29.58,SE,135,0.0,0.0,56,0.00,,,0.00,WUHU21623XXSP,2013-02-11 20:10:00,
2013-02-11 15:15:00,81.9,64.2,29.58,SE,135,0.0,0.0,55,0.00,,,0.00,WUHU21623XXSP,2013-02-11 20:15:00,
2013-02-11 15:20:00,81.7,64.4,29.58,SE,135,0.0,0.0,56,0.00,,,0.00,WUHU21623XXSP,2013-02-11 20:20:00,
2013-02-11 15:25:00,81.3,64.0,29.58,SSE,157,0.0,0.0,56,0.00,,,0.00,WUHU21623XXSP,2013-02-11 20:25:00,
2013-02-11 15:30:00,81.7,63.8,29.58,SE,135,0.0,0.0,55,0.00,,,0.00,WUHU21623XXSP,2013-02-11 20:30:00,
2013-02-11 15:35:00,81.5,64.2,29.58,SSE,157,0.0,0.0,56,0.00,,,0.00,WUHU21623XXSP,2013-02-11 20:35:00,
2013-02-11 15:40:00,80.4,63.9,29.58,SSE,157,0.0,0.0,57,0.00,,,0.00,WUHU21623XXSP,2013-02-11 20:40:00,
2013-02-11 15:45:00,81.1,64.4,29.58,SSE,157,0.0,0.0,57,0.00,,,0.00,WUHU21623XXSP,2013-02-11 20:45:00,
2013-02-11 15:50:00,80.2,63.6,29.58,SSE,157,0.0,0.0,57,0.00,,,0.00,WUHU21623XXSP,2013-02-11 20:50:00,
2013-02-11 15:55:00,80.4,63.8,29.58,SSE,157,0.0,0.0,57,0.00,,,0.00,WUHU21623XXSP,2013-02-11 20:55:00,
2013-02-11 16:00:00,80.4,63.8,29.58,SE,135,0.0,0.0,57,0.00,,,0.00,WUHU21623XXSP,2013-02-11 21:00:00,
2013-02-11 16:05:00,80.2,63.1,29.58,South,180,0.0,0.0,56,0.00,,,0.00,WUHU21623XXSP,2013-02-11 21:05:00,
2013-02-11 16:10:00,80.1,63.4,29.58,SSE,157,0.0,0.0,57,0.00,,,0.00,WUHU21623XXSP,2013-02-11 21:10:00,
2013-02-11 16:15:00,80.1,63.4,29.58,SSE,157,0.0,0.0,57,0.00,,,0.00,WUHU21623XXSP,2013-02-11 21:15:00,
2013-02-11 16:20:00,79.5,62.9,29.57,SSE,157,0.0,0.0,57,0.00,,,0.00,WUHU21623XXSP,2013-02-11 21:20:00,
2013-02-11 16:25:00,79.2,62.6,29.57,SE,135,0.0,0.0,57,0.00,,,0.00,WUHU21623XXSP,2013-02-11 21:25:00,
2013-02-11 16:30:00,79.2,62.6,29.58,SE,135,0.0,0.0,57,0.00,,,0.00,WUHU21623XXSP,2013-02-11 21:30:00,
2013-02-11 16:35:00,79.0,63.5,29.57,SSE,157,0.0,0.0,59,0.00,,,0.00,WUHU21623XXSP,2013-02-11 21:35:00,
2013-02-11 16:40:00,78.6,63.7,29.57,SSE,157,0.0,0.0,60,0.00,,,0.00,WUHU21623XXSP,2013-02-11 21:40:00,
2013-02-11 16:45:00,78.4,63.5,29.57,SE,135,0.0,0.0,60,0.00,,,0.00,WUHU21623XXSP,2013-02-11 21:45:00,
2013-02-11 16:50:00,78.4,63.5,29.57,South,180,0.0,0.0,60,0.00,,,0.00,WUHU21623XXSP,2013-02-11 21:50:00,
2013-02-11 16:55:00,78.1,63.1,29.57,SSE,157,0.0,0.0,60,0.00,,,0.00,WUHU21623XXSP,2013-02-11 21:55:00,
2013-02-11 17:00:00,77.7,63.2,29.57,South,180,0.0,0.0,61,0.00,,,0.00,WUHU21623XXSP,2013-02-11 22:00:00,
2013-02-11 17:05:00,77.5,63.0,29.57,South,180,0.0,0.0,61,0.00,,,0.00,WUHU21623XXSP,2013-02-11 22:05:00,
2013-02-11 17:10:00,77.2,62.7,29.57,SSE,157,0.0,0.0,61,0.00,,,0.00,WUHU21623XXSP,2013-02-11 22:10:00,
2013-02-11 17:15:00,76.8,62.8,29.57,SSE,157,0.0,0.0,62,0.00,,,0.00,WUHU21623XXSP,2013-02-11 22:15:00,
2013-02-11 17:20:00,76.3,62.3,29.57,SSE,157,0.0,0.0,62,0.00,,,0.00,WUHU21623XXSP,2013-02-11 22:20:00,
2013-02-11 17:25:00,76.1,62.1,29.57,SSE,157,0.0,0.0,62,0.00,,,0.00,WUHU21623XXSP,2013-02-11 22:25:00,
2013-02-11 17:30:00,75.7,62.2,29.57,SSE,157,0.0,0.0,63,0.00,,,0.00,WUHU21623XXSP,2013-02-11 22:30:00,
2013-02-11 17:35:00,75.4,62.3,29.57,SSE,157,0.0,0.0,64,0.00,,,0.00,WUHU21623XXSP,2013-02-11 22:35:00,
2013-02-11 17:40:00,75.4,62.3,29.57,SSE,157,0.0,0.0,64,0.00,,,0.00,WUHU21623XXSP,2013-02-11 22:40:00,
2013-02-11 17:45:00,75.0,62.4,29.57,SSE,157,0.0,0.0,65,0.00,,,0.00,WUHU21623XXSP,2013-02-11 22:45:00,
2013-02-11 17:50:00,74.8,62.7,29.57,SSW,202,0.0,0.0,66,0.00,,,0.00,WUHU21623XXSP,2013-02-11 22:50:00,
2013-02-11 17:55:00,74.5,62.3,29.56,SE,135,0.0,0.0,66,0.00,,,0.00,WUHU21623XXSP,2013-02-11 22:55:00,
2013-02-11 18:00:00,74.3,62.6,29.56,SSE,157,0.0,0.0,67,0.00,,,0.00,WUHU21623XXSP,2013-02-11 23:00:00,
2013-02-11 18:05:00,73.9,62.3,29.56,SSE,157,0.0,0.0,67,0.00,,,0.00,WUHU21623XXSP,2013-02-11 23:05:00,
2013-02-11 18:10:00,73.8,62.1,29.56,SSE,157,0.0,0.0,67,0.00,,,0.00,WUHU21623XXSP,2013-02-11 23:10:00,
2013-02-11 18:15:00,73.8,62.1,29.56,South,180,0.0,0.0,67,0.00,,,0.00,WUHU21623XXSP,2013-02-11 23:15:00,
2013-02-11 18:20:00,73.4,62.2,29.56,SSE,157,0.0,0.0,68,0.00,,,0.00,WUHU21623XXSP,2013-02-11 23:20:00,
2013-02-11 18:25:00,73.2,62.1,29.56,SSE,157,0.0,0.0,68,0.00,,,0.00,WUHU21623XXSP,2013-02-11 23:25:00,
2013-02-11 18:30:00,73.2,62.1,29.56,SSE,157,0.0,0.0,68,0.00,,,0.00,WUHU21623XXSP,2013-02-11 23:30:00,
2013-02-11 18:35:00,73.0,61.9,29.56,SSE,157,0.0,0.0,68,0.00,,,0.00,WUHU21623XXSP,2013-02-11 23:35:00,
2013-02-11 18:40:00,73.0,62.3,29.56,SSE,157,0.0,0.0,69,0.00,,,0.00,WUHU21623XXSP,2013-02-11 23:40:00,
2013-02-11 18:45:00,73.0,62.3,29.56,SE,135,0.0,0.0,69,0.00,,,0.00,WUHU21623XXSP,2013-02-11 23:45:00,
2013-02-11 18:50:00,72.7,62.0,29.56,SSE,157,0.0,0.0,69,0.00,,,0.00,WUHU21623XXSP,2013-02-11 23:50:00,
2013-02-11 18:55:00,72.5,61.8,29.56,SSW,202,0.0,0.0,69,0.00,,,0.00,WUHU21623XXSP,2013-02-11 23:55:00,
2013-02-11 19:00:00,72.5,61.8,29.56,South,180,0.0,0.0,69,0.00,,,0.00,WUHU21623XXSP,2013-02-12 00:00:00,
2013-02-11 19:05:00,72.5,61.8,29.57,SSE,157,0.0,0.0,69,0.00,,,0.00,WUHU21623XXSP,2013-02-12 00:05:00,
2013-02-11 19:10:00,72.5,62.2,29.57,SSE,157,0.0,0.0,70,0.00,,,0.00,WUHU21623XXSP,2013-02-12 00:10:00,
2013-02-11 19:15:00,72.3,62.1,29.57,SSE,157,0.0,0.0,70,0.00,,,0.00,WUHU21623XXSP,2013-02-12 00:15:00,
2013-02-11 19:20:00,72.3,62.1,29.57,SE,135,0.0,0.0,70,0.00,,,0.00,WUHU21623XXSP,2013-02-12 00:20:00,
2013-02-11 19:25:00,72.1,62.3,29.57,SSE,157,0.0,0.0,71,0.00,,,0.00,WUHU21623XXSP,2013-02-12 00:25:00,
2013-02-11 19:30:00,72.1,62.3,29.57,SSE,157,0.0,0.0,71,0.00,,,0.00,WUHU21623XXSP,2013-02-12 00:30:00,
2013-02-11 19:35:00,72.1,62.3,29.57,SSE,157,0.0,0.0,71,0.00,,,0.00,WUHU21623XXSP,2013-02-12 00:35:00,
2013-02-11 19:40:00,72.0,62.1,29.57,SSE,157,0.0,0.0,71,0.00,,,0.00,WUHU21623XXSP,2013-02-12 00:40:00,
2013-02-11 19:45:00,71.8,62.3,29.58,SSE,157,0.0,0.0,72,0.00,,,0.00,WUHU21623XXSP,2013-02-12 00:45:00,
2013-02-11 19:50:00,71.8,62.3,29.58,SSE,157,0.0,0.0,72,0.00,,,0.00,WUHU21623XXSP,2013-02-12 00:50:00,
2013-02-11 19:55:00,71.8,62.3,29.58,SSW,202,0.0,0.0,72,0.00,,,0.00,WUHU21623XXSP,2013-02-12 00:55:00,
2013-02-11 20:00:00,71.6,62.1,29.58,SSE,157,0.0,0.0,72,0.00,,,0.00,WUHU21623XXSP,2013-02-12 01:00:00,
2013-02-11 20:05:00,71.6,62.1,29.58,SSE,157,0.0,0.0,72,0.00,,,0.00,WUHU21623XXSP,2013-02-12 01:05:00,
2013-02-11 20:10:00,71.4,61.9,29.58,SE,135,0.0,0.0,72,0.00,,,0.00,WUHU21623XXSP,2013-02-12 01:10:00,
2013-02-11 20:15:00,71.4,61.9,29.58,SSE,157,0.0,0.0,72,0.00,,,0.00,WUHU21623XXSP,2013-02-12 01:15:00,
2013-02-11 20:20:00,71.4,62.3,29.58,SE,135,0.0,0.0,73,0.00,,,0.00,WUHU21623XXSP,2013-02-12 01:20:00,
2013-02-11 20:25:00,71.4,62.3,29.58,SSE,157,0.0,0.0,73,0.00,,,0.00,WUHU21623XXSP,2013-02-12 01:25:00,
2013-02-11 20:30:00,71.4,62.3,29.58,SSE,157,0.0,0.0,73,0.00,,,0.00,WUHU21623XXSP,2013-02-12 01:30:00,
2013-02-11 20:35:00,71.4,62.3,29.58,SSE,157,0.0,0.0,73,0.00,,,0.00,WUHU21623XXSP,2013-02-12 01:35:00,
2013-02-11 20:40:00,71.4,62.3,29.58,SSE,157,0.0,0.0,73,0.00,,,0.00,WUHU21623XXSP,2013-02-12 01:40:00,
2013-02-11 20:45:00,71.4,62.7,29.58,SSE,157,0.0,0.0,74,0.00,,,0.00,WUHU21623XXSP,2013-02-12 01:45:00,
2013-02-11 20:50:00,71.4,62.7,29.58,SSE,157,0.0,0.0,74,0.00,,,0.00,WUHU21623XXSP,2013-02-12 01:50:00,
2013-02-11 20:55:00,71.4,62.7,29.58,SSE,157,0.0,0.0,74,0.00,,,0.00,WUHU21623XXSP,2013-02-12 01:55:00,
2013-02-11 21:00:00,71.4,62.7,29.58,SSE,157,0.0,0.0,74,0.00,,,0.00,WUHU21623XXSP,2013-02-12 02:00:00,
2013-02-11 21:05:00,71.2,62.5,29.58,South,180,0.0,0.0,74,0.00,,,0.00,WUHU21623XXSP,2013-02-12 02:05:00,
2013-02-11 21:10:00,71.2,62.5,29.58,SSE,157,0.0,0.0,74,0.00,,,0.00,WUHU21623XXSP,2013-02-12 02:10:00,
2013-02-11 21:15:00,71.2,62.5,29.59,SSE,157,0.0,0.0,74,0.00,,,0.00,WUHU21623XXSP,2013-02-12 02:15:00,
2013-02-11 21:20:00,71.4,63.0,29.58,South,180,0.0,0.0,75,0.00,,,0.00,WUHU21623XXSP,2013-02-12 02:20:00,
2013-02-11 21:25:00,71.2,62.5,29.59,SE,135,0.0,0.0,74,0.00,,,0.00,WUHU21623XXSP,2013-02-12 02:25:00,
2013-02-11 21:30:00,71.2,62.9,29.58,SE,135,0.0,0.0,75,0.00,,,0.00,WUHU21623XXSP,2013-02-12 02:30:00,
2013-02-11 21:35:00,71.2,62.9,29.58,SSE,157,0.0,0.0,75,0.00,,,0.00,WUHU21623XXSP,2013-02-12 02:35:00,
2013-02-11 21:40:00,71.2,62.9,29.58,South,180,0.0,0.0,75,0.00,,,0.00,WUHU21623XXSP,2013-02-12 02:40:00,
2013-02-11 21:45:00,71.2,62.9,29.58,SSE,157,0.0,0.0,75,0.00,,,0.00,WUHU21623XXSP,2013-02-12 02:45:00,
2013-02-11 21:50:00,71.1,62.7,29.58,SSE,157,0.0,0.0,75,0.00,,,0.00,WUHU21623XXSP,2013-02-12 02:50:00,
2013-02-11 21:55:00,71.1,62.7,29.58,South,180,0.0,0.0,75,0.00,,,0.00,WUHU21623XXSP,2013-02-12 02:55:00,
2013-02-11 22:00:00,70.9,62.5,29.58,SSE,157,0.0,0.0,75,0.00,,,0.00,WUHU21623XXSP,2013-02-12 03:00:00,
2013-02-11 22:05:00,70.9,62.5,29.58,SSE,157,0.0,0.0,75,0.00,,,0.00,WUHU21623XXSP,2013-02-12 03:05:00,
2013-02-11 22:10:00,70.9,62.5,29.58,SSW,202,0.0,0.0,75,0.00,,,0.00,WUHU21623XXSP,2013-02-12 03:10:00,
2013-02-11 22:15:00,70.9,62.5,29.58,SSE,157,0.0,0.0,75,0.00,,,0.00,WUHU21623XXSP,2013-02-12 03:15:00,
2013-02-11 22:20:00,70.9,62.5,29.58,SSE,157,0.0,0.0,75,0.00,,,0.00,WUHU21623XXSP,2013-02-12 03:20:00,
2013-02-11 22:25:00,70.7,62.3,29.58,SSE,157,0.0,0.0,75,0.00,,,0.00,WUHU21623XXSP,2013-02-12 03:25:00,
2013-02-11 22:30:00,70.7,62.3,29.58,SSE,157,0.0,0.0,75,0.00,,,0.00,WUHU21623XXSP,2013-02-12 03:30:00,
2013-02-11 22:35:00,70.7,62.3,29.58,SSW,202,0.0,0.0,75,0.00,,,0.00,WUHU21623XXSP,2013-02-12 03:35:00,
2013-02-11 22:40:00,70.7,62.3,29.58,SSE,157,0.0,0.0,75,0.00,,,0.00,WUHU21623XXSP,2013-02-12 03:40:00,
2013-02-11 22:45:00,70.7,62.3,29.58,SE,135,0.0,0.0,75,0.00,,,0.00,WUHU21623XXSP,2013-02-12 03:45:00,
2013-02-11 22:50:00,70.7,62.3,29.58,SSE,157,0.0,0.0,75,0.00,,,0.00,WUHU21623XXSP,2013-02-12 03:50:00,
2013-02-11 22:55:00,70.7,62.3,29.58,SSE,157,0.0,0.0,75,0.00,,,0.00,WUHU21623XXSP,2013-02-12 03:55:00,
2013-02-11 23:00:00,70.5,62.2,29.57,SSE,157,0.0,0.0,75,0.00,,,0.00,WUHU21623XXSP,2013-02-12 04:00:00,
2013-02-11 23:05:00,70.5,62.2,29.58,SSE,157,0.0,0.0,75,0.00,,,0.00,WUHU21623XXSP,2013-02-12 04:05:00,
2013-02-11 23:10:00,70.5,62.2,29.58,SSW,202,0.0,0.0,75,0.00,,,0.00,WUHU21623XXSP,2013-02-12 04:10:00,
2013-02-11 23:15:00,70.5,62.2,29.58,SSE,157,0.0,0.0,75,0.00,,,0.00,WUHU21623XXSP,2013-02-12 04:15:00,
2013-02-11 23:20:00,70.5,62.2,29.57,SSE,157,0.0,0.0,75,0.00,,,0.00,WUHU21623XXSP,2013-02-12 04:20:00,
2013-02-11 23:25:00,70.5,62.2,29.57,SE,135,0.0,0.0,75,0.00,,,0.00,WUHU21623XXSP,2013-02-12 04:25:00,
2013-02-11 23:30:00,70.5,62.2,29.57,SSE,157,0.0,0.0,75,0.00,,,0.00,WUHU21623XXSP,2013-02-12 04:30:00,
2013-02-11 23:35:00,70.5,62.2,29.57,SE,135,0.0,0.0,75,0.00,,,0.00,WUHU21623XXSP,2013-02-12 04:35:00,
2013-02-11 23:40:00,70.5,62.2,29.57,SSE,157,0.0,0.0,75,0.00,,,0.00,WUHU21623XXSP,2013-02-12 04:40:00,
2013-02-11 23:45:00,70.5,62.2,29.57,SSE,157,0.0,0.0,75,0.00,,,0.00,WUHU21623XXSP,2013-02-12 04:45:00,
2013-02-11 23:50:00,70.5,62.2,29.57,South,180,0.0,0.0,75,0.00,,,0.00,WUHU21623XXSP,2013-02-12 04:50:00,
2013-02-11 23:55:00,70.5,62.2,29.57,SSE,157,0.0,0.0,75,0.00,,,0.00,WUHU21623XXSP,2013-02-12 04:55:00,